Weather observations for the past three days for
Laughlin Air Force Base Auxiliary Airfield
| Date | Time (cdt) | Wind (mph) | Vis. (mi.) | Weather | Sky Cond. | Temperature (ºF) | Relative Humidity | Wind Chill (°F) | Heat Index (°F) | Pressure | Precipitation (in) | ||||||
|---|---|---|---|---|---|---|---|---|---|---|---|---|---|---|---|---|---|
| Air | Dwpt | 6 hour | altimeter (in) | sea level (mb) | 1 hr | 3 hr | 6 hr | ||||||||||
| Max. | Min. | ||||||||||||||||
| 04 | 02:55 | E 12 | 10.00 | Fair | CLR | 84.4 | 73 | 69% | 91 | 29.84 | 1008.8 | ||||||
| 04 | 01:55 | SE 15 | 10.00 | Fair | CLR | 86.5 | 72.3 | 63% | 93 | 29.84 | 1008.8 | ||||||
| 04 | 00:55 | E 20 | 10.00 | Fair | CLR | 88.5 | 70.7 | 102.4 | 88.5 | 56% | 94 | 29.83 | 1008.5 | ||||
| 03 | 23:55 | SE 15 | 10.00 | Fair | CLR | 90.5 | 68.7 | 49% | 95 | 29.82 | 1008.2 | ||||||
| 03 | 22:55 | E 14 G 22 | 10.00 | Fair | CLR | 91.9 | 61.2 | 36% | 92 | 29.8 | 1007.5 | ||||||
| 03 | 21:55 | E 12 | 10.00 | Fair | CLR | 93.7 | 61 | 34% | 94 | 29.77 | 1006.5 | ||||||
| 03 | 20:55 | E 10 | 10.00 | Fair | CLR | 95.2 | 61.5 | 33% | 96 | 29.75 | 1005.8 | ||||||
| 03 | 19:55 | E 8 | 10.00 | Fair | CLR | 98.8 | 57.9 | 26% | 98 | 29.73 | 1005.2 | ||||||
| 03 | 18:55 | E 13 | 10.00 | Fair | CLR | 102.6 | 58.8 | 104.5 | 95.4 | 24% | 103 | 29.73 | 1005.1 | ||||
| 03 | 17:55 | E 13 | 10.00 | Fair | CLR | 103.8 | 58.6 | 23% | 104 | 29.72 | 1004.7 | ||||||
| 03 | 16:55 | E 12 G 18 | 10.00 | Fair | CLR | 103.5 | 62.8 | 26% | 106 | 29.73 | 1005.1 | ||||||
| 03 | 15:55 | E 9 | 10.00 | A Few Clouds | FEW075 | 104.2 | 62.4 | 26% | 107 | 29.75 | 1005.7 | ||||||
| 03 | 14:55 | S 13 | 10.00 | Fair | CLR | 102.7 | 66.2 | 31% | 108 | 29.78 | 1006.7 | ||||||
| 03 | 13:55 | SE 9 | 10.00 | Fair | CLR | 99.9 | 69.6 | 38% | 107 | 29.81 | 1007.8 | ||||||
| 03 | 12:55 | SE 9 | 10.00 | Fair | CLR | 95.2 | 71.6 | 95.5 | 79.5 | 47% | 103 | 29.85 | 1009.2 | ||||
| 03 | 11:55 | SE 9 | 10.00 | Fair | CLR | 91.9 | 72.9 | 54% | 101 | 29.88 | 1010.3 | ||||||
| 03 | 10:55 | SE 12 | 10.00 | Fair | CLR | 88.2 | 73.4 | 62% | 96 | 29.88 | 1010.3 | ||||||
| 03 | 09:55 | SE 15 | 10.00 | Fair | CLR | 85.3 | 73.4 | 68% | 92 | 29.89 | 1010.6 | ||||||
| 03 | 08:55 | E 15 | 10.00 | Fair | CLR | 82.6 | 73.4 | 74% | 89 | 29.89 | 1010.7 | ||||||
| 03 | 07:55 | E 9 | 10.00 | Fair | CLR | 79.7 | 72.5 | 79% | 83 | 29.87 | 1009.9 | ||||||
| 03 | 06:55 | E 10 | 10.00 | Fair | CLR | 80.4 | 72.1 | 87.6 | 80.4 | 76% | 85 | 29.86 | 1009.5 | ||||
| 03 | 05:55 | E 10 | 10.00 | Fair | CLR | 82.4 | 72 | 71% | 87 | 29.86 | 1009.5 | ||||||
| 03 | 04:55 | E 12 | 10.00 | Fair | CLR | 83.5 | 72.1 | 69% | 89 | 29.85 | 1009.2 | ||||||
| 03 | 03:55 | E 12 | 10.00 | Fair | CLR | 85.1 | 72.3 | 66% | 91 | 29.85 | 1009.2 | ||||||
| 03 | 02:55 | E 14 | 10.00 | Fair | CLR | 86.2 | 71.1 | 61% | 92 | 29.85 | 1009.2 | ||||||
| 03 | 01:55 | E 9 | 10.00 | A Few Clouds | FEW100 | 86.4 | 66 | 51% | 89 | 29.85 | 1009.2 | ||||||
| 03 | 00:55 | E 10 | 10.00 | Fair | CLR | 87.8 | 63.1 | 101.8 | 86.9 | 44% | 89 | 29.85 | 1009.2 | ||||
| 02 | 23:55 | E 6 | 10.00 | Fair | CLR | 87.4 | 62.1 | 43% | 88 | 29.84 | 1008.9 | ||||||
| 02 | 22:55 | E 8 | 10.00 | Fair | CLR | 90.1 | 61.7 | 39% | 90 | 29.83 | 1008.6 | ||||||
| 02 | 21:55 | E 8 | 10.00 | Fair | CLR | 91.9 | 61.9 | 37% | 92 | 29.82 | 1008.3 | ||||||
| 02 | 20:55 | E 7 | 10.00 | Fair | CLR | 94.1 | 61.3 | 34% | 95 | 29.8 | 1007.6 | ||||||
| 02 | 19:55 | E 8 | 10.00 | Fair | CLR | 98.6 | 60.8 | 29% | 99 | 29.78 | 1006.9 | ||||||
| 02 | 18:55 | E 10 | 10.00 | Fair | CLR | 102 | 59.5 | 103.6 | 94.8 | 25% | 103 | 29.79 | 1007.2 | ||||
| 02 | 17:55 | SE 14 G 17 | 10.00 | Fair | CLR | 103.3 | 60.4 | 25% | 104 | 29.79 | 1007.2 | ||||||
| 02 | 16:55 | SE 9 | 10.00 | Fair | CLR | 103.1 | 59.2 | 24% | 104 | 29.8 | 1007.4 | ||||||
| 02 | 15:55 | S 5 | 10.00 | Fair | CLR | 102 | 60.6 | 26% | 103 | 29.83 | 1008.5 | ||||||
| 02 | 14:55 | S 12 | 10.00 | A Few Clouds | FEW070 | 101.1 | 61.9 | 28% | 103 | 29.86 | 1009.5 | ||||||
| 02 | 13:55 | S 9 | 10.00 | Fair | CLR | 98.6 | 67.6 | 37% | 104 | 29.89 | 1010.6 | ||||||
| 02 | 12:55 | SE 6 | 10.00 | Fair | CLR | 95.2 | 71.1 | 95.2 | 78.1 | 46% | 103 | 29.92 | 1011.6 | ||||
| 02 | 11:55 | E 8 | 10.00 | Fair | CLR | 91.6 | 72 | 53% | 99 | 29.95 | 1012.7 | ||||||
| 02 | 10:55 | SE 8 | 10.00 | Fair | CLR | 88.3 | 72.1 | 59% | 95 | 29.96 | 1013.0 | ||||||
| 02 | 09:55 | SE 12 | 10.00 | Fair | CLR | 85.6 | 71.6 | 63% | 91 | 29.96 | 1013.0 | ||||||
| 02 | 08:55 | E 12 | 10.00 | Fair | CLR | 82 | 70.3 | 68% | 86 | 29.95 | 1012.7 | ||||||
| 02 | 07:55 | E 9 | 10.00 | Fair | CLR | 78.6 | 68.4 | 71% | 81 | 29.93 | 1012.0 | ||||||
| 02 | 06:55 | E 9 | 9.00 | Fair | CLR | 78.6 | 67.1 | 86.4 | 78.4 | 68% | 81 | 29.92 | 1011.6 | ||||
| 02 | 05:55 | E 7 | 10.00 | Fair | CLR | 78.8 | 66 | 65% | 81 | 29.92 | 1011.6 | ||||||
| 02 | 04:55 | E 6 | 10.00 | Fair | CLR | 81 | 67.1 | 63% | 83 | 29.92 | 1011.6 | ||||||
| 02 | 03:55 | E 9 | 10.00 | Fair | CLR | 82.6 | 67.3 | 60% | 85 | 29.91 | 1011.2 | ||||||
| 02 | 02:55 | E 8 | 10.00 | Fair | CLR | 82.9 | 64 | 53% | 84 | 29.91 | 1011.2 | ||||||
| 02 | 01:55 | E 8 | 10.00 | Fair | CLR | 84.6 | 62.1 | 47% | 85 | 29.91 | 1011.3 | ||||||
| 02 | 00:55 | E 10 | 10.00 | Fair | CLR | 86.4 | 60.4 | 99.7 | 86.2 | 42% | 86 | 29.9 | 1011.0 | ||||
| 01 | 23:55 | E 9 | 10.00 | Fair | CLR | 87.3 | 59.9 | 40% | 87 | 29.89 | 1010.7 | ||||||
| 01 | 22:55 | E 10 | 10.00 | Fair | CLR | 89.1 | 60.1 | 38% | 89 | 29.89 | 1010.7 | ||||||
| 01 | 21:55 | E 10 | 10.00 | Fair | CLR | 90.1 | 60.3 | 37% | 90 | 29.87 | 1010.0 | ||||||
| 01 | 20:55 | E 6 | 10.00 | Fair | CLR | 92.5 | 60.8 | 35% | 92 | 29.85 | 1009.3 | ||||||
| 01 | 19:55 | E 12 | 10.00 | Fair | CLR | 96.3 | 61.5 | 32% | 97 | 29.83 | 1008.6 | ||||||
| 01 | 18:55 | E 10 | 10.00 | Fair | CLR | 99.7 | 58.6 | 101.5 | 92.7 | 26% | 99 | 29.83 | 1008.6 | ||||
| 01 | 17:55 | E 13 | 10.00 | Fair | CLR | 100.9 | 58.6 | 25% | 101 | 29.83 | 1008.6 | ||||||
| 01 | 16:55 | SE 12 G 18 | 10.00 | Fair | CLR | 100.4 | 60.3 | 27% | 101 | 29.84 | 1008.9 | ||||||
| 01 | 15:55 | E 12 G 16 | 10.00 | Fair | CLR | 100 | 64.8 | 32% | 103 | 29.86 | 1009.5 | ||||||
| 01 | 14:55 | E 9 | 10.00 | Fair | CLR | 99 | 66.4 | 35% | 103 | 29.89 | 1010.6 | ||||||
| 01 | 13:55 | E 9 | 10.00 | Fair | CLR | 95.5 | 69.4 | 43% | 102 | 29.92 | 1011.6 | ||||||
| 01 | 12:55 | E 9 | 10.00 | Fair | CLR | 93.2 | 70.5 | 93.2 | 77.5 | 48% | 100 | 29.95 | 1012.6 | ||||
| 01 | 11:55 | S 10 | 10.00 | Fair | CLR | 89.1 | 71.8 | 57% | 96 | 29.97 | 1013.3 | ||||||
| 01 | 10:55 | SE 8 | 10.00 | Fair | CLR | 86.2 | 71.6 | 62% | 92 | 29.97 | 1013.4 | ||||||
| 01 | 09:55 | SE 9 | 10.00 | Fair | CLR | 83.5 | 70.9 | 66% | 88 | 29.97 | 1013.4 | ||||||
| 01 | 08:55 | E 12 | 10.00 | Fair | CLR | 80.6 | 71.1 | 73% | 84 | 29.98 | 1013.8 | ||||||
| 01 | 07:55 | E 9 | 10.00 | Fair | CLR | 77.9 | 70 | 77% | 80 | 29.96 | 1013.0 | ||||||
| 01 | 06:55 | E 9 | 10.00 | Fair | CLR | 77.7 | 68.4 | 88 | 77.7 | 73% | 80 | 29.95 | 1012.7 | ||||
| 01 | 05:55 | E 8 | 10.00 | Fair | CLR | 78.6 | 66.7 | 67% | 81 | 29.94 | 1012.3 | ||||||
| 01 | 04:55 | E 8 | 10.00 | Fair | CLR | 80.8 | 66.9 | 63% | 83 | 29.93 | 1012.0 | ||||||
| Date | Time (cdt) | Wind (mph) | Vis. (mi.) | Weather | Sky Cond. | Air | Dwpt | Max. | Min. | Relative Humidity | Wind Chill (°F) | Heat Index (°F) | altimeter (in) | sea level (mb) | 1 hr | 3 hr | 6 hr |
| 6 hour | |||||||||||||||||
| Temperature (ºF) | Pressure | Precipitation (in) | |||||||||||||||